Torna al catalogo

STARLINK-30260

AttivoComunicazioniVLEO
NORAD 57524·PAYLOAD·🇺🇸 United States

Lanciato Aug 8, 2023 da Vandenberg Space Force Base

Loading…

Prossimi Passaggi (prossime 24 ore)

TLE

AggiornatoSource: CelesTrak SupGP

Epoca: Sep 15, 2026, 01:36 UTC

1 57524C 23115D   26258.06715278 -.00056170  00000+0 -20345-2 0  2588
2 57524  43.0018  12.1034 0001509 262.3252 118.4181 15.27606482    15

Traccia STARLINK-30260 in tempo reale con AllMySat

Download on the App Store